Location: Artiguedieu
(43.5000°N, 0.5454°E)
Time: 20:58:46
(UTC+00:00)

Transit 2A - Pass Details

Date: 26 July 2021
Orbit: 594 x 964 km, 66.7° (Epoch: 28 September)

Event Time Altitude Azimuth Distance (km) Brightness Sun altitude
Rises 17:19:46 0° 319° (NW) 3,263 10.0 21.1°
Reaches altitude 10° 17:22:18 10° 309° (NW) 2,392 9.7 20.6°
Maximum altitude 17:27:07 31° 249° (WSW) 1,461 8.8 19.8°
Drops below altitude 10° 17:32:18 10° 189° (S) 2,581 8.8 18.8°
Sets 17:35:09 0° 180° (S) 3,562 9.3 18.3°
